[[{"header":{"parameterUnit":"m.s-1","parameterCategory":1,"la1":30.2991,"la2":30.254,"lo1":-89.0895,"lo2":-89.0444,"dy":0.0017,"dx":0.0017,"nx":28,"ny":28,"refTime":"2025-09-01T21:00:00:Z","depth":0,"parameterNumber":2,"parameterNumberName":"U-component_of_WINDS"},"data":[0,0,0,0,0,0,0,0,0,0,0,0,0,0,0,0,0,0,0,0,0,0,0,0,0,0,0,0,0,0,0,0,0,0,0,0,0,0,0,0,0,0,0,0,0,0,0,0,0,0,0,0,0,0,0,0,0,0,-1.2783,-1.2782,0,-1.2743,-1.2742,-1.2742,-1.2673,-1.2672,-1.267,-1.2669,-1.2628,-1.2628,-1.2629,0,0,0,0,0,0,0,0,0,0,0,0,0,-1.2801,-1.2801,-1.2783,-1.2782,-1.2782,-1.2743,-1.2742,-1.2742,-1.2673,-1.2671,-1.267,-1.2668,-1.2628,-1.2628,-1.2629,0,0,0,0,0,0,0,0,0,0,0,0,0,-1.2781,-1.2801,-1.2783,-1.2743,-1.2739,-1.2743,-1.2742,-1.2741,-1.2673,-1.2671,-1.2669,-1.2668,-1.2628,-1.2628,-1.2629,-1.2668,0,0,-1.2629,-1.2629,0,0,0,0,0,0,0,0,-1.2782,-1.278,-1.2749,-1.2746,-1.2741,-1.2711,-1.2734,-1.2717,-1.2674,-1.2698,-1.2669,-1.2667,-1.2657,-1.2655,-1.2652,-1.2667,-1.2665,-1.2629,-1.2629,-1.2629,-1.2629,0,0,0,0,0,0,0,-1.2783,-1.2781,-1.2767,-1.2749,-1.2744,-1.2727,-1.2722,-1.273,-1.2689,-1.2696,-1.2691,-1.2687,-1.2655,-1.2652,-1.265,-1.2664,-1.2629,-1.2629,-1.2629,-1.263,-1.2712,-1.2713,0,0,0,0,0,0,-1.2791,-1.2783,-1.2768,-1.2766,-1.2757,-1.2729,-1.2723,-1.2722,-1.2689,-1.2682,-1.2689,-1.2684,-1.2652,-1.265,-1.2649,-1.2694,-1.2629,-1.263,-1.263,-1.2709,-1.2712,-1.2714,0,0,0,0,0,0,-1.2791,-1.279,-1.277,-1.2773,-1.2769,-1.273,-1.273,-1.2723,-1.2719,-1.2683,-1.2676,-1.2693,-1.2651,-1.2648,-1.2664,-1.2692,-1.263,-1.263,-1.2707,-1.271,-1.2713,-1.2785,0,0,0,0,0,0,-1.2792,-1.2791,-1.2805,-1.2774,-1.2769,-1.2786,-1.2732,-1.2723,-1.272,-1.2713,-1.2685,-1.2679,-1.2649,-1.2665,-1.2665,-1.2691,-1.263,-1.2704,-1.2708,-1.2712,-1.278,-1.279,-1.2798,0,0,0,0,0,-1.2793,-1.2826,-1.2806,-1.2804,-1.2786,-1.2787,-1.2785,-1.275,-1.2722,-1.2737,-1.2714,-1.268,-1.2689,-1.2667,-1.2666,-1.2693,-1.2702,-1.2707,-1.2712,-1.2775,-1.2788,-1.2798,0,0,0,0,0,0,-1.2861,-1.2821,-1.2798,-1.2822,-1.2809,-1.2776,-1.2793,-1.2764,-1.2758,-1.2752,-1.2708,-1.2703,-1.2725,-1.271,-1.2686,-1.273,-1.269,-1.2695,-1.2739,-1.275,-1.276,-1.2763,-1.263,0,0,0,0,0,-1.2879,-1.2883,-1.2848,-1.2873,-1.2867,-1.2832,-1.2831,-1.2805,-1.2789,-1.2783,-1.2761,-1.2748,-1.2747,-1.2748,-1.2746,-1.2777,-1.2771,-1.2796,-1.2805,-1.2813,-1.2818,-1.2835,-1.2846,-1.273,-1.2729,-1.2729,0,0,-1.2916,-1.2895,-1.29,-1.2886,-1.2872,-1.2878,-1.2827,-1.2835,-1.2839,-1.2784,-1.2798,-1.2782,-1.2764,-1.2789,-1.2798,-1.2777,-1.2848,-1.2819,-1.2826,-1.2826,-1.2841,-1.2852,-1.2861,-1.2733,-1.2732,-1.2732,0,0,-1.2986,-1.297,-1.2989,-1.2977,-1.2958,-1.2934,-1.2939,-1.2911,-1.2898,-1.2911,-1.2871,-1.2876,-1.2876,-1.2865,-1.286,-1.2928,-1.2897,-1.2929,-1.2978,-1.2995,-1.3004,-1.3012,-1.3037,-1.3047,-1.2933,-1.2934,-1.2934,0,-1.3034,-1.3041,-1.3003,-1.3014,-1.301,-1.2961,-1.2981,-1.2971,-1.2952,-1.2951,-1.2927,-1.2928,-1.2912,-1.2934,-1.2951,-1.2948,-1.2953,-1.2931,-1.3006,-1.3013,-1.302,-1.3044,-1.3053,-1.2938,-1.2937,-1.2937,-1.2936,0,-1.3101,-1.3107,-1.3125,-1.3108,-1.3106,-1.3122,-1.3087,-1.3089,-1.3065,-1.3044,-1.3059,-1.3039,-1.3032,-1.3036,-1.3011,-1.3055,-1.3043,-1.3013,-1.2972,-1.3036,-1.3057,-1.3066,-1.2943,-1.2942,-1.2941,-1.294,0,0,-1.3212,-1.3175,-1.3183,-1.3175,-1.3151,-1.3155,-1.3169,-1.3163,-1.3166,-1.3155,-1.3166,-1.3169,-1.3142,-1.3136,-1.311,-1.3125,-1.3182,-1.3094,-1.3093,-1.3112,-1.3231,-1.3253,-1.3264,-1.3162,-1.3163,-1.3165,-1.3232,0,-1.3277,-1.3298,-1.3266,-1.3295,-1.33,-1.3255,-1.3267,-1.3255,-1.3236,-1.3238,-1.3218,-1.322,-1.3184,-1.3181,-1.3194,-1.3173,-1.3206,-1.3167,-1.3173,-1.3173,-1.3179,-1.3275,-1.3298,-1.3363,-1.3241,-1.3242,-1.3243,0,-1.3355,-1.3349,-1.3379,-1.3354,-1.3355,-1.3367,-1.336,-1.3362,-1.3347,-1.3333,-1.3328,-1.3297,-1.331,-1.3271,-1.3289,-1.3264,-1.3264,-1.3254,-1.3256,-1.3255,-1.3212,-1.3277,-1.3383,-1.3393,-1.3256,-1.3255,-1.3254,0,-1.3434,-1.3433,-1.3451,-1.3446,-1.3417,-1.3427,-1.3415,-1.3399,-1.3398,-1.3391,-1.3391,-1.3386,-1.3384,-1.3382,-1.3352,-1.3326,-1.3374,-1.3332,-1.3363,-1.3364,-1.3375,-1.3374,-1.3482,-1.3375,-1.3375,-1.3375,-1.3374,0,-1.351,-1.353,-1.3486,-1.3497,-1.3519,-1.3482,-1.3504,-1.3489,-1.3475,-1.3482,-1.3443,-1.3452,-1.3411,-1.3416,-1.3392,-1.3412,-1.3411,-1.34,-1.3394,-1.3404,-1.3405,-1.3403,-1.3398,-1.3377,-1.3377,-1.3376,-1.3376,0,-1.3601,-1.3572,-1.3589,-1.3561,-1.3555,-1.3572,-1.3549,-1.3559,-1.3538,-1.3549,-1.3549,-1.3517,-1.3521,-1.3491,-1.3488,-1.3472,-1.3503,-1.3488,-1.3508,-1.3504,-1.3537,-1.3535,-1.3647,-1.3661,-1.3545,-1.3546,-1.3547,0,-1.3652,-1.3667,-1.3641,-1.3643,-1.3634,-1.3639,-1.3638,-1.3602,-1.3603,-1.3589,-1.36,-1.3601,-1.3599,-1.3607,-1.3584,-1.3582,-1.3568,-1.3607,-1.3567,-1.3577,-1.3569,-1.3569,-1.3571,-1.3616,-1.3617,-1.3618,-1.3619,0,-1.3745,-1.3731,-1.373,-1.3726,-1.3726,-1.3721,-1.3713,-1.3718,-1.368,-1.3683,-1.3686,-1.3685,-1.3683,-1.3684,-1.3678,-1.3667,-1.3638,-1.3633,-1.364,-1.365,-1.3661,-1.3657,-1.3532,-1.363,-1.3629,-1.3628,-1.3628,-1.3627,-1.3818,-1.3829,-1.3814,-1.3815,-1.3806,-1.38,-1.3808,-1.3789,-1.3791,-1.3787,-1.3766,-1.3774,-1.376,-1.3749,-1.3741,-1.3747,-1.3728,-1.3738,-1.3741,-1.3744,-1.3751,-1.3661,-1.3746,-1.3746,-1.3745,-1.3745,-1.3745,0,-1.391,-1.3898,-1.39,-1.3891,-1.3893,-1.3865,-1.3855,-1.3859,-1.3866,-1.3855,-1.3855,-1.3859,-1.3861,-1.3839,-1.3838,-1.3847,-1.3833,-1.3848,-1.3847,-1.3845,-1.3767,-1.3762,-1.3859,-1.3859,-1.3859,-1.3859,-1.3859,-1.3859,-1.3958,-1.3976,-1.396,-1.3974,-1.3962,-1.3969,-1.3966,-1.3961,-1.3952,-1.3959,-1.396,-1.3946,-1.3931,-1.3929,-1.393,-1.3923,-1.3925,-1.3944,-1.3934,-1.3861,-1.385,-1.384,-1.3834,-1.3945,-1.3945,-1.4011,-1.4011,-1.4012]},{"header":{"parameterUnit":"m.s-1","parameterCategory":1,"la1":30.2991,"la2":30.254,"lo1":-89.0895,"lo2":-89.0444,"dy":0.0017,"dx":0.0017,"nx":28,"ny":28,"refTime":"2025-09-01T21:00:00:Z","depth":0,"parameterNumber":3,"parameterNumberName":"V-component_of_WINDS"},"data":[0,0,0,0,0,0,0,0,0,0,0,0,0,0,0,0,0,0,0,0,0,0,0,0,0,0,0,0,0,0,0,0,0,0,0,0,0,0,0,0,0,0,0,0,0,0,0,0,0,0,0,0,0,0,0,0,0,0,3.3651,3.3651,0,3.3623,3.3623,3.3623,3.3655,3.3656,3.3657,3.3659,3.3624,3.3622,3.362,0,0,0,0,0,0,0,0,0,0,0,0,0,3.3726,3.3725,3.3651,3.3651,3.365,3.3623,3.3623,3.3623,3.3655,3.3656,3.3658,3.3659,3.3625,3.3622,3.362,0,0,0,0,0,0,0,0,0,0,0,0,0,3.3695,3.3724,3.3651,3.3663,3.3664,3.3624,3.3623,3.3623,3.3654,3.3656,3.3658,3.366,3.3626,3.3623,3.362,3.3564,0,0,3.361,3.3609,0,0,0,0,0,0,0,0,3.3697,3.3693,3.3662,3.3662,3.3663,3.3645,3.3637,3.3603,3.3654,3.3658,3.3659,3.3661,3.3629,3.3626,3.3616,3.3562,3.3561,3.361,3.3608,3.3607,3.3606,0,0,0,0,0,0,0,3.3699,3.3694,3.364,3.3661,3.3662,3.3668,3.3666,3.3631,3.3633,3.3658,3.366,3.3657,3.363,3.3619,3.3616,3.356,3.361,3.3607,3.3605,3.3604,3.3458,3.3456,0,0,0,0,0,0,3.3701,3.3696,3.3641,3.3639,3.3685,3.3666,3.3663,3.3649,3.3634,3.3633,3.3655,3.3658,3.3624,3.3619,3.3615,3.3548,3.3607,3.3604,3.3602,3.346,3.3458,3.3455,0,0,0,0,0,0,3.3702,3.3696,3.3642,3.3668,3.3662,3.3662,3.3646,3.3647,3.3637,3.3632,3.3632,3.3644,3.3625,3.3619,3.3576,3.3547,3.3602,3.36,3.3462,3.3459,3.3457,3.3414,0,0,0,0,0,0,3.3704,3.3696,3.3676,3.3667,3.366,3.3606,3.3644,3.3645,3.3632,3.3636,3.3622,3.3621,3.3626,3.3581,3.3573,3.3544,3.3597,3.3465,3.3461,3.3457,3.3418,3.341,3.3403,0,0,0,0,0,3.3707,3.3664,3.3675,3.3668,3.3636,3.3604,3.36,3.3608,3.363,3.3609,3.3606,3.3622,3.3552,3.3576,3.3568,3.3537,3.3467,3.3462,3.3458,3.3421,3.3411,3.3403,0,0,0,0,0,0,3.3666,3.3663,3.3675,3.3628,3.3616,3.361,3.3583,3.3597,3.3577,3.3581,3.3591,3.3587,3.3542,3.3535,3.3563,3.3482,3.3513,3.3506,3.3488,3.3478,3.3471,3.3473,3.3595,0,0,0,0,0,3.3653,3.3629,3.3627,3.3585,3.3579,3.3582,3.3569,3.3576,3.3564,3.3558,3.3552,3.3537,3.3512,3.3495,3.3472,3.3418,3.3414,3.3392,3.3385,3.3379,3.3373,3.3343,3.3333,3.344,3.3441,3.3441,0,0,3.3623,3.3618,3.3602,3.3577,3.3569,3.3543,3.3578,3.3548,3.3528,3.3553,3.3513,3.3508,3.3492,3.3443,3.3422,3.3437,3.3342,3.3373,3.3368,3.3365,3.3337,3.3327,3.3318,3.3437,3.3438,3.3438,0,0,3.3555,3.3549,3.3514,3.3506,3.3494,3.3496,3.3488,3.3479,3.3478,3.3438,3.3456,3.3431,3.3388,3.3376,3.3364,3.3293,3.3306,3.3285,3.3245,3.3216,3.3207,3.32,3.3173,3.3164,3.3279,3.3279,3.3279,0,3.3518,3.3481,3.3494,3.3464,3.3452,3.3476,3.3439,3.343,3.341,3.34,3.3418,3.3364,3.3355,3.3304,3.3287,3.3277,3.3266,3.3286,3.3208,3.3201,3.3194,3.3168,3.3158,3.3276,3.3277,3.3277,3.3277,0,3.3437,3.3411,3.3384,3.3366,3.3351,3.3318,3.3324,3.3307,3.3316,3.3316,3.3275,3.3266,3.3241,3.3229,3.3237,3.3179,3.3189,3.3207,3.3238,3.3181,3.3157,3.3147,3.3273,3.3274,3.3274,3.3275,0,0,3.3341,3.3332,3.3322,3.3314,3.3303,3.3282,3.325,3.3228,3.3212,3.3198,3.317,3.3133,3.3151,3.3137,3.3144,3.3118,3.3061,3.314,3.314,3.3125,3.2995,3.2981,3.2969,3.3071,3.3069,3.3068,3.2996,0,3.3272,3.3218,3.3229,3.3175,3.3151,3.3173,3.3145,3.3134,3.3133,3.3111,3.311,3.3083,3.3109,3.3101,3.3077,3.3073,3.3035,3.3079,3.3043,3.3041,3.3045,3.2957,3.2942,3.2875,3.2987,3.2986,3.2985,0,3.3184,3.3169,3.3113,3.3107,3.3097,3.3071,3.3052,3.3031,3.3018,3.302,3.3005,3.3017,3.2983,3.3015,3.2968,3.2997,3.2983,3.2979,3.2977,3.2972,3.3009,3.2949,3.2854,3.2843,3.297,3.2972,3.2973,0,3.3119,3.3084,3.3046,3.3039,3.303,3.3012,3.3007,3.2997,3.2983,3.2965,3.2956,3.2934,3.2921,3.2903,3.2908,3.2931,3.2858,3.2891,3.2857,3.2857,3.2839,3.284,3.2738,3.2832,3.2832,3.2833,3.2833,0,3.304,3.3005,3.3017,3.2993,3.2954,3.2967,3.2927,3.2924,3.2915,3.289,3.2908,3.2884,3.2893,3.2868,3.2872,3.2831,3.2825,3.2824,3.2825,3.2822,3.2822,3.2812,3.2816,3.283,3.2831,3.2831,3.2832,0,3.296,3.2967,3.2927,3.2923,3.2921,3.2892,3.2887,3.2864,3.2866,3.2834,3.2828,3.2829,3.2802,3.2805,3.2774,3.2776,3.2726,3.2733,3.273,3.2731,3.2696,3.2699,3.2584,3.2569,3.2673,3.2672,3.2671,0,3.2908,3.2882,3.2876,3.2862,3.2856,3.2833,3.2819,3.283,3.2815,3.2799,3.2778,3.2753,3.2733,3.2688,3.2685,3.2661,3.2667,3.2628,3.2663,3.2661,3.2665,3.2666,3.2663,3.2621,3.262,3.2619,3.2618,0,3.2816,3.2821,3.2802,3.2784,3.2768,3.2754,3.2741,3.2728,3.2738,3.2719,3.2693,3.2678,3.2647,3.2621,3.2599,3.2592,3.2605,3.2607,3.2598,3.2593,3.2593,3.2592,3.271,3.2609,3.261,3.2611,3.2611,3.2612,3.2748,3.2726,3.2718,3.2696,3.2688,3.2676,3.2655,3.2655,3.2633,3.2611,3.2618,3.2587,3.2575,3.2548,3.2538,3.2513,3.2527,3.2514,3.251,3.2506,3.2502,3.2598,3.2509,3.251,3.251,3.251,3.251,0,3.2656,3.2653,3.2633,3.2616,3.2598,3.2615,3.2602,3.2586,3.2559,3.2548,3.2529,3.2498,3.2473,3.2469,3.2445,3.2426,3.2432,3.2419,3.242,3.2418,3.2491,3.2501,3.2415,3.2415,3.2415,3.2415,3.2415,3.2415,3.2606,3.2569,3.2574,3.2532,3.2529,3.2501,3.2492,3.248,3.2471,3.2437,3.2417,3.2416,3.2407,3.2383,3.236,3.2359,3.2349,3.2334,3.2335,3.2403,3.2413,3.2422,3.2431,3.2332,3.2332,3.2264,3.2263,3.2263]}]]